This demonstration page uses our WeatherBlox Daily Observations layout. Learn more.

Hourly Observations for April 22, 2018

Temp ( °F °C ) Dew Point ( °F °C ) Humidity (%) Winds ( mph kmh ) Pressure ( in mb ) Visibility ( mi km ) Precip ( " mm )
12:15 am 00:15 Cloudy 40 4.7 40 4.7 100 100 N 3 6 30.3 1026 10 16.0934 0 0
12:35 am 00:35 Cloudy 40 4.6 40 4.5 99 99 NE 10 17 30.3 1026 7 11.26538 0 0
12:55 am 00:55 Cloudy 40 4.5 40 4.2 98 98 ENE 8 13 30.3 1026 7 11.26538 0 0
1:15 am 01:15 Cloudy 40 4.5 40 4.2 98 98 NE 6 9 30.3 1026 7 11.26538 0 0
1:35 am 01:35 Cloudy with Mist and Fog 40 4.5 40 4.3 99 99 ENE 5 7 30.3 1026 5 8.0467 0 0
1:55 am 01:55 Cloudy with Mist and Fog 40 4.5 40 4.5 100 100 NE 5 7 30.3 1026 5 8.0467 0 0
2:15 am 02:15 Cloudy 40 4.5 40 4.5 100 100 ENE 5 7 30.3 1026 7 11.26538 0 0
2:35 am 02:35 Cloudy 40 4.4 40 4.4 100 100 Calm 30.27 1025 7 11.26538 0 0
2:55 am 02:55 Mostly Cloudy with Mist and Fog 39 3.8 39 3.8 100 100 Calm 30.27 1025 5 8.0467 0 0
3:15 am 03:15 Partly Cloudy with Mist and Fog 38 3.3 38 3.3 100 100 N 3 6 30.27 1025 3 4.82802 0 0
3:35 am 03:35 Mostly Cloudy with Mist and Fog 38 3.1 38 3.1 100 100 NW 3 6 30.27 1025 2.5 4.02335 0 0
3:55 am 03:55 Cloudy with Mist and Fog 38 3.5 38 3.5 100 100 NNW 5 7 30.27 1025 3 4.82802 0 0
4:15 am 04:15 Cloudy with Mist and Fog 38 3.5 38 3.5 100 100 N 5 7 30.27 1025 4 6.43736 0 0
4:35 am 04:35 Cloudy with Mist and Fog 39 3.7 39 3.7 100 100 NNW 5 7 30.27 1025 5 8.0467 0 0
4:55 am 04:55 Cloudy with Mist and Fog 39 3.7 39 3.7 100 100 N 5 7 30.27 1025 4 6.43736 0 0
5:15 am 05:15 Cloudy with Mist and Fog 39 3.7 39 3.7 100 100 NNW 5 7 30.27 1025 5 8.0467 0 0
5:35 am 05:35 Cloudy with Mist and Fog 39 3.7 39 3.7 100 100 N 3 6 30.27 1025 4 6.43736 0 0
5:55 am 05:55 Cloudy with Mist and Fog 39 3.7 39 3.7 100 100 N 5 7 30.27 1025 4 6.43736 0 0
6:15 am 06:15 Cloudy with Mist and Fog 38 3.6 38 3.6 100 100 N 5 7 30.27 1025 4 6.43736 0 0
6:35 am 06:35 Cloudy with Mist and Fog 38 3.5 38 3.5 100 100 NNE 5 7 30.27 1025 4 6.43736 0 0
6:55 am 06:55 Cloudy with Mist and Fog 38 3.3 38 3.3 100 100 N 6 9 30.27 1025 4 6.43736 0 0
7:15 am 07:15 Cloudy with Mist and Fog 38 3.2 38 3.2 100 100 N 6 9 30.3 1026 3 4.82802 0 0
7:35 am 07:35 Cloudy with Mist and Fog 38 3.6 38 3.6 100 100 N 5 7 30.3 1026 4 6.43736 0 0
7:55 am 07:55 Cloudy with Mist and Fog 39 3.9 39 3.9 100 100 N 5 7 30.3 1026 5 8.0467 0 0
8:15 am 08:15 Cloudy with Mist and Fog 40 4.4 40 4.4 100 100 N 3 6 30.3 1026 5 8.0467 0 0
8:35 am 08:35 Cloudy 40 4.6 40 4.5 99 99 N 6 9 30.3 1026 7 11.26538 0 0
8:55 am 08:55 Mostly Cloudy 41 5.1 40 4.5 96 96 N 6 9 30.27 1025 10 16.0934 0 0
9:15 am 09:15 Mostly Cloudy 42 5.7 41 5 95 95 N 8 13 30.27 1025 10 16.0934 0 0
9:35 am 09:35 Cloudy 43 6 40 4.7 91 91 N 7 11 30.27 1025 10 16.0934 0 0
9:55 am 09:55 Cloudy 43 6.3 40 4.7 90 90 N 6 9 30.27 1025 10 16.0934 0 0
10:15 am 10:15 Cloudy 45 7 42 5.4 90 90 N 5 7 30.27 1025 10 16.0934 0 0
10:35 am 10:35 Cloudy 45 7.4 42 5.3 87 87 N 6 9 30.27 1025 10 16.0934 0 0
10:55 am 10:55 Mostly Cloudy 46 8 41 5.2 83 83 NNE 7 11 30.24 1024 10 16.0934 0 0
11:15 am 11:15 Partly Cloudy 48 9.1 41 5 76 76 NE 7 11 30.24 1024 10 16.0934 0 0
11:35 am 11:35 Partly Cloudy 49 9.4 41 4.9 74 74 NE 8 13 30.24 1024 10 16.0934 0 0
11:55 am 11:55 Sunny 51 10.4 40 4.3 66 66 NE 6 9 30.24 1024 10 16.0934 0 0
12:15 pm 12:15 Sunny 51 10.7 41 4.9 68 68 NE 9 15 30.24 1024 10 16.0934 0 0
12:35 pm 12:35 Partly Cloudy 52 11 40 4.4 64 64 NNE 7 11 30.24 1024 10 16.0934 0 0
12:55 pm 12:55 Partly Cloudy 52 11.3 41 4.9 65 65 Calm 30.21 1023 10 16.0934 0 0
1:15 pm 13:15 Partly Cloudy 53 11.8 39 4 59 59 E 3 6 30.18 1022 10 16.0934 0 0
1:35 pm 13:35 Sunny 54 12.3 41 5 61 61 NE 5 7 30.18 1022 10 16.0934 0 0
1:55 pm 13:55 Partly Cloudy 54 12.2 39 4.1 58 58 ENE 3 6 30.18 1022 10 16.0934 0 0
2:15 pm 14:15 Partly Cloudy 55 12.9 40 4.3 56 56 Calm 30.18 1022 10 16.0934 0 0
2:35 pm 14:35 Mostly Cloudy 56 13.6 41 4.9 56 56 NNE 3 6 30.18 1022 10 16.0934 0 0
2:55 pm 14:55 Cloudy 56 13.6 40 4.4 54 54 Calm 30.18 1022 10 16.0934 0 0
3:15 pm 15:15 Partly Cloudy 58 14.3 40 4.4 52 52 NNE 7 11 30.12 1020 10 16.0934 0 0
3:35 pm 15:35 Sunny 58 14.2 39 4 51 51 Calm 30.12 1020 10 16.0934 0 0
3:55 pm 15:55 Sunny 59 14.9 39 3.9 48 48 NNE 8 13 30.12 1020 10 16.0934 0 0
4:15 pm 16:15 Partly Cloudy 59 14.8 38 3.6 47 47 E 10 17 30.09 1019 10 16.0934 0 0
4:35 pm 16:35 Partly Cloudy 60 15.3 39 3.8 46 46 Calm 30.09 1019 10 16.0934 0 0
4:55 pm 16:55 Partly Cloudy 60 15.3 38 3.5 45 45 E 5 7 30.09 1019 10 16.0934 0 0
5:15 pm 17:15 Sunny 60 15.7 39 3.9 46 46 ESE 6 9 30.09 1019 10 16.0934 0 0
5:35 pm 17:35 Sunny 60 15.6 39 3.8 46 46 NE 7 11 30.09 1019 10 16.0934 0 0
5:55 pm 17:55 Partly Cloudy 60 15.6 38 3.5 45 45 Calm 30.09 1019 10 16.0934 0 0
6:15 pm 18:15 Partly Cloudy 60 15.7 39 3.9 46 46 ENE 7 11 30.09 1019 10 16.0934 0 0
6:35 pm 18:35 Mostly Cloudy 60 15.3 38 3.6 46 46 E 6 9 30.09 1019 10 16.0934 0 0
6:55 pm 18:55 Cloudy 60 15.3 39 4 47 47 ENE 3 6 30.09 1019 10 16.0934 0 0
7:15 pm 19:15 Cloudy 59 15.1 40 4.3 49 49 E 3 6 30.09 1019 10 16.0934 0 0
7:35 pm 19:35 Cloudy 59 15 40 4.7 50 50 Calm 30.09 1019 10 16.0934 0 0
7:55 pm 19:55 Cloudy 58 14.5 42 5.6 55 55 Calm 30.09 1019 10 16.0934 0 0
8:15 pm 20:15 Cloudy 57 14 41 5.2 56 56 Calm 30.09 1019 10 16.0934 0 0
8:35 pm 20:35 Cloudy 57 13.7 40 4.5 54 54 Calm 30.12 1020 10 16.0934 0 0
8:55 pm 20:55 Cloudy 55 13 41 5 59 59 Calm 30.12 1020 10 16.0934 0 0
9:15 pm 21:15 Cloudy 54 12.4 42 5.5 63 63 Calm 30.12 1020 10 16.0934 0 0
9:35 pm 21:35 Mostly Cloudy 53 11.5 43 6.1 70 70 Calm 30.15 1021 10 16.0934 0 0
9:55 pm 21:55 Partly Cloudy 51 10.8 42 5.7 71 71 Calm 30.15 1021 10 16.0934 0 0
10:15 pm 22:15 Mostly Cloudy 49 9.6 42 5.5 76 76 Calm 30.18 1022 10 16.0934 0 0
10:35 pm 22:35 Cloudy 51 10.7 42 5.7 71 71 SSE 3 6 30.15 1021 10 16.0934 0 0
10:55 pm 22:55 Cloudy 51 10.3 41 5 70 70 SSE 6 9 30.18 1022 10 16.0934 0 0
11:15 pm 23:15 Cloudy 50 10.2 40 4.3 67 67 SSE 5 7 30.18 1022 10 16.0934 0 0
11:35 pm 23:35 Cloudy 51 10.4 40 4.3 66 66 S 3 6 30.18 1022 10 16.0934 0 0
11:55 pm 23:55 Cloudy 50 10.1 41 4.8 70 70 S 3 6 30.18 1022 10 16.0934 0 0

Powered by AerisWeather